Wetbulb
65.73 65.61 67.05 64.56 64.36 62.64 63.69 63.53 65.63 65.68 65.95 66.04 66.57 67.39 68.13 68.50 67.98 68.16 65.73 65.60 64.40 64.45
65.48 66.64 65.95 66.07 66.37 65.46 65.36 64.89 65.69 65.68 65.97 66.18 66.26 66.86 67.43 67.56 66.21 66.73 66.74 66.33 63.39 63.43
64.84 66.20 66.41 65.99 65.70 65.57 63.69 65.24 64.48 65.67 65.89 65.94 66.11 66.49 67.53 67.79 66.31 64.89 64.62 65.06 62.43 61.36
64.46 65.31 65.42 65.78 66.09 64.38 64.99 63.49 65.56 65.65 65.70 65.29 65.80 66.91 67.77 67.68 66.00 64.55 63.61 63.08 61.38 60.99
64.33 65.00 65.46 65.70 66.76 66.01 65.63 62.87 62.92 64.94 65.22 65.29 65.57 66.26 66.45 65.87 65.55 63.93 62.89 61.89 62.12 60.93
63.65 64.31 64.74 65.35 64.98 66.79 66.53 64.18 63.25 63.64 63.06 65.01 65.86 65.90 66.54 65.94 65.39 65.52 65.25 63.57 62.05 63.17
62.99 63.99 65.04 64.78 64.61 65.48 66.35 66.14 65.04 63.90 63.63 63.58 64.88 66.47 66.65 66.44 66.81 66.47 64.84 64.33 65.26 64.96
62.75 63.57 65.33 64.39 64.45 64.60 64.70 64.82 65.22 65.08 64.69 64.33 64.02 64.72 65.78 66.76 67.07 66.20 65.80 66.04 65.27 66.49
61.68 62.26 63.59 64.33 64.12 63.98 63.15 62.86 63.11 63.23 62.75 63.11 59.86 48.42 53.95 63.11 65.83 65.64 65.13 63.25 63.17 62.60
61.10 61.06 62.23 62.95 62.41 62.51 63.71 64.41 63.37 62.88 62.99 61.69 60.07 47.18 49.71 56.35 65.90 65.63 66.00 65.64 64.44 61.64
59.52 60.84 61.78 61.97 62.48 64.22 64.76 64.49 63.78 62.54 62.51 62.36 55.06 46.37 49.20 53.87 67.04 66.76 66.09 65.32 65.19 64.70
58.27 59.91 61.16 61.54 63.43 64.95 64.76 65.23 63.66 63.08 62.48 61.94 59.10 44.53 44.58 50.86 64.51 63.29 63.07 62.75 63.23 63.63
58.93 59.68 60.51 62.93 64.26 64.95 64.66 63.90 62.81 62.69 62.96 57.90 61.24 43.16 42.23 48.42 59.45 60.98 59.38 60.53 59.55 47.01
60.36 61.23 63.52 65.24 65.90 64.66 63.46 63.47 63.77 61.92 62.92 62.42 61.65 55.48 41.82 41.74 57.96 57.56 56.33 55.51 55.41 55.34
MSLP
1008.66 1008.72 1008.98 1009.25 1009.56 1009.72 1009.63 1009.56 1009.45 1009.52 1009.50 1009.45 1009.52 1009.78 1010.32 1010.91 1011.44 1011.79 1012.31 1012.83 1013.22 1014.11
1008.77 1008.83 1009.32 1009.43 1009.66 1009.90 1009.94 1009.83 1009.75 1009.66 1009.73 1009.77 1010.06 1010.40 1010.84 1011.39 1011.70 1012.38 1013.13 1013.49 1014.29 1015.09
1008.69 1008.74 1008.92 1009.00 1009.24 1009.76 1010.19 1010.04 1009.95 1010.09 1010.18 1010.33 1010.52 1010.94 1011.19 1011.59 1012.22 1012.95 1013.96 1014.60 1015.40 1015.79
1008.71 1008.94 1008.97 1008.99 1009.29 1009.98 1010.07 1010.49 1010.35 1010.33 1010.45 1010.72 1010.99 1011.21 1011.45 1011.86 1012.44 1012.98 1013.94 1014.45 1015.08 1016.05
1008.88 1009.08 1009.12 1009.16 1009.52 1010.14 1010.32 1010.91 1011.10 1010.96 1011.05 1011.15 1011.31 1011.61 1011.68 1011.94 1012.56 1013.25 1013.68 1014.28 1015.52 1016.38
1009.05 1009.31 1009.61 1009.60 1009.88 1009.94 1010.40 1010.99 1011.28 1011.31 1011.65 1011.40 1011.36 1011.63 1011.76 1012.24 1012.66 1013.24 1013.81 1014.63 1015.40 1016.16
1009.19 1009.49 1009.59 1009.74 1009.85 1009.93 1010.13 1010.73 1011.37 1011.53 1011.73 1011.65 1011.49 1011.60 1011.90 1012.31 1012.84 1013.35 1013.88 1014.59 1015.24 1015.87
1009.36 1009.62 1009.71 1009.86 1009.98 1010.13 1010.35 1010.58 1010.98 1011.33 1011.57 1011.80 1011.68 1012.03 1012.27 1012.63 1013.05 1013.41 1013.88 1014.30 1014.92 1015.47
1009.27 1009.51 1009.93 1010.18 1010.40 1010.48 1010.59 1010.77 1010.97 1011.19 1011.64 1012.16 1012.76 1012.84 1012.80 1012.96 1013.25 1013.60 1013.89 1014.46 1015.01 1015.59
1009.03 1009.40 1009.90 1010.18 1010.51 1010.80 1011.03 1011.17 1011.25 1011.61 1012.24 1012.98 1013.46 1013.60 1013.54 1013.48 1013.54 1013.67 1014.14 1014.62 1015.02 1015.27
1008.62 1009.10 1009.65 1010.07 1010.46 1011.07 1011.46 1011.59 1011.78 1011.96 1012.43 1013.20 1014.27 1014.24 1014.16 1014.00 1014.21 1014.34 1014.51 1014.72 1014.86 1015.51
1008.13 1008.74 1009.39 1009.93 1010.51 1011.07 1011.52 1011.76 1012.02 1012.20 1012.58 1013.12 1014.20 1014.68 1014.80 1014.83 1014.59 1014.71 1014.90 1015.10 1015.56 1015.93
1007.58 1008.27 1009.02 1009.71 1010.44 1011.03 1011.45 1011.70 1011.74 1012.17 1012.65 1013.06 1013.73 1014.58 1014.92 1014.91 1014.08 1014.79 1015.05 1015.67 1016.25 1016.51
1007.21 1007.96 1008.66 1009.47 1010.30 1010.92 1011.29 1011.37 1011.63 1011.99 1012.56 1013.02 1013.54 1014.58 1014.97 1015.11 1015.06 1014.80 1015.08 1015.35 1016.09 1016.82
Wind_Speed
8 8 6 7 5 2 4 5 6 7 7 6 9 10 11 9 9 12 11 11 9 8
5 9 5 8 6 5 5 4 7 9 9 9 11 11 12 9 12 12 11 9 9 8
5 7 7 6 7 7 5 8 7 7 9 10 11 12 12 10 12 11 9 9 10 8
6 7 6 7 9 8 9 6 7 8 9 9 11 11 11 11 12 13 10 9 9 9
6 7 7 9 11 11 9 7 5 7 8 9 10 8 12 13 12 12 11 11 10 11
7 7 9 7 10 10 12 9 5 6 9 8 9 10 9 12 12 13 14 14 13 13
8 8 9 9 9 10 10 13 11 4 7 6 7 11 12 13 13 13 12 13 14 14
9 9 8 9 9 9 9 10 12 9 7 8 5 7 10 12 11 12 13 11 12 9
11 10 9 9 9 8 9 9 10 11 10 9 8 10 9 10 10 11 9 9 10 9
12 12 11 10 10 9 7 6 7 8 11 10 8 9 9 6 8 9 9 9 10 10
13 13 12 11 11 9 7 7 7 8 9 10 6 5 7 7 9 8 8 7 7 9
14 14 13 12 11 9 9 8 8 7 7 8 7 3 2 4 8 8 8 7 6 8
14 14 14 12 11 9 9 9 8 8 7 5 7 5 1 4 5 7 6 6 6 9
13 13 12 11 10 9 9 9 8 9 8 8 8 7 6 5 6 8 7 8 7 7
Wind_Direction
28 59 52 68 88 72 48 49 75 112 119 127 142 146 127 128 126 116 123 120 98 104
59 75 86 95 98 80 40 66 84 104 89 116 122 125 120 127 120 120 117 97 94 104
89 90 106 90 90 95 116 57 104 96 92 103 114 118 124 125 120 118 119 122 108 101
99 100 98 86 77 87 97 76 97 110 105 103 113 130 123 125 129 125 127 117 112 107
118 106 101 93 94 104 96 84 81 91 107 107 112 124 135 132 135 132 129 117 126 134
129 111 107 90 101 116 119 127 89 96 98 111 121 135 135 134 144 145 150 146 147 154
140 125 129 124 119 111 116 128 130 114 99 99 104 119 128 123 127 139 143 148 157 158
150 140 140 131 121 111 116 114 126 132 131 125 89 109 122 118 127 132 137 143 156 155
162 154 143 139 131 128 126 129 126 128 100 82 77 18 49 114 119 117 102 98 107 118
169 162 158 155 146 135 128 130 124 114 109 97 83 24 40 95 112 110 114 124 141 130
176 168 168 167 154 145 149 143 142 137 129 118 96 30 25 40 118 127 118 128 131 112
177 173 173 173 162 162 166 164 166 153 148 140 130 115 25 338 156 136 137 139 131 149
178 176 176 175 166 172 176 176 182 168 170 142 147 155 262 295 171 150 149 149 137 58
176 175 175 167 166 174 191 176 205 175 171 170 163 163 198 250 279 162 172 160 163 141